Track COSMOS 2310 now! 10-day predictions COSMOS 2310 is classified as:
1 23526U 95012A 22177.94981639 .00000030 00000-0 16476-4 0 9994 2 23526 82.9451 138.2621 0022164 7.2155 51.7466 13.71943982364893